Regional Weather Roundup
Issued by NWS

Home | Current Version | Previous Version | Text Only | Print | Product List | Glossary Off
Versions: 1 2 3 4 5 6 7 8 9 10 11 12 13 14 15 16 17 18 19 20 21 22 23 24 25 26 27 28 29 30 31 32 33 34 35 36 37 38 39 40 41 42 43 44 45 46 47 48 49 50

000
ASUS43 KIND 260809
RWRIN

WEATHER ROUNDUP FOR INDIANA
NATIONAL WEATHER SERVICE INDIANAPOLIS IN
400 AM EDT MON SEP 26 2016

NOTE: "FAIR" INDICATES FEW OR NO CLOUDS BELOW 12,000 FEET WITH NO
SIGNIFICANT WEATHER AND/OR OBSTRUCTIONS TO VISIBILITY.

* - STATION DOES NOT REPORT WEATHER SUCH AS PRECIPITATION OR FOG.

+ - STATION NOT QUALITY CONTROLLED BY THE NATIONAL WEATHER SERVICE.
    USE DATA WITH CAUTION...ESPECIALLY DEWPOINT AND RELATIVE
    HUMIDITY OBSERVATIONS.

INZ001>003-010>013-019-020-260900-
NORTHWEST INDIANA

CITY           SKY/WX    TMP DP  RH WIND       PRES   REMARKS
GARY /AIRPORT/ LGT RAIN  62  58  86 W6        29.98S
KNOX *+        CLOUDY    63  45  51 W5        29.95S
LA PORTE +     CLOUDY    66  56  70 W6        29.97R
MICHIGAN CITY+ LGT RAIN  64  54  68 MISG      29.96S
MONTICELLO +   CLOUDY    65  56  73 W8        29.96S
RENSSELAER +   LGT RAIN  63  55  77 W8        29.99R
VALPARAISO     LGT RAIN  64  52  64 W10G20    29.97R

$$

LMZ046-743>745-260900-
SOUTHERN LAKE MICHIGAN

STATION/POSITION TIME  TEMP    WIND        PRES    WAVE
                       AIR SEA DIR/SP/G            HT
                 (UTC) (F)     (DEG/KT/KT) (MB)    (FT)
BURNS HARBOR     0700   67     290/ 16/ 18 1014.9R
MICHIGAN CITY    0700   66     260/ 21/ 23   N/A
5NW MICH CITY    0800   65 65  290/ 19/ 23   N/A     5

$$

INZ004-005-014>016-021>024-260900-
NORTH CENTRAL INDIANA

CITY           SKY/WX    TMP DP  RH WIND       PRES   REMARKS
GOSHEN         RAIN      66  58  75 W12       29.93S
LOGANSPORT +   CLOUDY    66  55  68 W7        29.96S
PERU/GRISSOM   CLOUDY    69  60  75 NW12      29.93S
ROCHESTER +    CLOUDY    68  66  94 W7        29.95R
SOUTH BEND     LGT RAIN  62  58  86 NW10      29.95S
WARSAW +       CLOUDY    64  55  72 NW8       29.93R

$$

INZ006>009-017-018-025>027-260900-
NORTHEAST INDIANA

CITY           SKY/WX    TMP DP  RH WIND       PRES   REMARKS
ANGOLA *+      CLOUDY    68  68 100 SW6       29.90F
AUBURN +       CLOUDY    70  64  83 SW5       29.91F
FORT WAYNE     CLOUDY    69  66  90 W5        29.92F
HUNTINGTON +   CLOUDY    70  68  93 W6        29.93R
KENDALLVILLE + CLOUDY    68  67  98 W7        29.91F

$$

INZ028-029-035-036-043>045-051>053-260900-
WEST CENTRAL INDIANA

CITY           SKY/WX    TMP DP  RH WIND       PRES   REMARKS
CRAWFORDSVL +  CLOUDY    62  60  94 W8        30.00R
GREENCASTLE +  CLOUDY    66  63  88 NW10      30.00R
LAFAYETTE      CLOUDY    64  57  78 W13       29.99R
TERRE HAUTE    LGT RAIN  67  56  67 N15G26    30.01R

$$

INZ030>032-037>040-046>048-054>057-064-065-260900-
CENTRAL INDIANA

CITY           SKY/WX    TMP DP  RH WIND       PRES   REMARKS
FISHERS *+     CLOUDY    70  70 100 CALM      29.96R
GREENWOOD *+   CLOUDY   N/A N/A N/A W5        29.96F
INDIANAPOLIS   CLOUDY    70  68  93 NW9       29.95F
-EAGLE CREEK   CLOUDY    71  67  87 NW12      29.96S
MARION +       CLOUDY    70  66  88 W8        29.95S
MT COMFORT *+  CLOUDY    70  68  94 W7        29.96F
SHELBYVILLE    MOCLDY    72  67  84 SW6       29.94F
ZIONSVILLE +   CLOUDY    68  66  93 W6        29.97S

$$

INZ033-034-041-042-049-050-058-059-260900-
EAST CENTRAL INDIANA

CITY           SKY/WX    TMP DP  RH WIND       PRES   REMARKS
MUNCIE         CLOUDY    70  67  90 SW5       29.94F FOG

$$

INZ060-061-067>069-081>083-085>088-260900-
SOUTHWEST INDIANA

CITY           SKY/WX    TMP DP  RH WIND       PRES   REMARKS
EVANSVILLE     PTCLDY    74  68  81 W9        29.98R
HUNTINGBURG *+   N/A     72  64  78 W8        29.97S
WASHINGTON +   LGT RAIN  72  72 100 MISG      29.98R

$$

INZ062-063-066-070>080-084-089>092-260900-
SOUTH CENTRAL AND SOUTHEAST INDIANA

CITY           SKY/WX    TMP DP  RH WIND       PRES   REMARKS
BLOOMINGTON    CLOUDY    71  67  87 NW3       29.97S
MADISON *+     CLEAR     68  64  88 CALM      29.99F
NORTH VERNON + CLEAR    N/A N/A N/A S3        29.96F
SEYMOUR +      PTCLDY    66  66 100 CALM      29.95F FOG

$$




USA.gov is the U.S. government's official web portal to all federal, state and local government web resources and services.